Location: Fort Wayne
(41.1310°N, 85.1290°W)
Time: 08:20:54
(UTC-05:00)

SR - Visible Passes

Search period start: 23 November 2014 00:00
Search period end: 03 December 2014 00:00
Orbit: 578 x 886 km, 66.7° (Epoch: 23 November)

Date Brightness Start Highest point End Pass type
(mag) Time Alt. Az. Time Alt. Az. Time Alt. Az.
23 Nov ? 05:22:03 10° SE 05:24:57 14° ESE 05:27:49 10° ENE visible
23 Nov ? 07:00:26 10° SSW 07:06:24 89° WNW 07:12:14 10° NNE visible
24 Nov ? 06:12:20 10° S 06:18:03 50° ESE 06:23:39 10° NE visible
25 Nov ? 05:24:58 10° SSE 05:29:50 27° ESE 05:34:39 10° NE visible
25 Nov ? 07:06:01 10° SW 07:11:47 51° NW 07:17:24 10° NNE visible
26 Nov ? 04:38:51 10° SE 04:41:47 14° ESE 04:44:42 10° ENE visible
26 Nov ? 06:17:18 10° SSW 06:23:15 89° WNW 06:29:04 10° NNE visible
27 Nov ? 05:29:10 10° S 05:34:53 51° ESE 05:40:29 10° NE visible
27 Nov ? 07:12:12 10° WSW 07:17:19 30° NW 07:22:18 10° N visible
28 Nov ? 04:41:46 10° SSE 04:46:40 27° ESE 04:51:29 10° NE visible
28 Nov ? 06:22:52 10° SW 06:28:37 50° NW 06:34:12 10° NNE visible
29 Nov ? 03:55:37 10° SE 03:58:36 14° ESE 04:01:32 10° ENE visible
29 Nov ? 05:35:13 16° SSW 05:40:05 88° WNW 05:45:52 10° NNE visible
30 Nov ? 04:50:39 46° SSE 04:51:41 51° ESE 04:57:16 10° NE visible
30 Nov ? 06:30:18 15° W 06:34:08 29° NW 06:39:04 10° N visible
01 Dec ? 04:05:13 24° E 04:05:13 24° E 04:08:16 10° NE visible
01 Dec ? 05:44:48 48° WNW 05:45:24 50° NW 05:50:58 10° NNE visible
02 Dec ? 04:58:50 44° NNE 04:58:50 44° NNE 05:02:37 10° NNE visible
02 Dec ? 06:38:24 17° WNW 06:39:48 18° NW 06:43:36 10° N visible
